[[{"header":{"parameterUnit":"m.s-1","parameterCategory":1,"la1":30.2991,"la2":30.254,"lo1":-89.0895,"lo2":-89.0444,"dy":0.0017,"dx":0.0017,"nx":28,"ny":28,"refTime":"2024-06-30T09:00:00:Z","depth":0,"parameterNumber":2,"parameterNumberName":"U-component_of_WINDS"},"data":[0,0,0,0,0,0,0,0,0,0,0,0,0,0,0,0,0,0,0,0,0,0,0,0,0,0,0,0,0,0,0,0,0,0,0,0,0,0,0,0,0,0,0,0,0,0,0,0,0,0,0,0,0,0,0,0,0,0,0.0671,0.0674,0,0.0932,0.0935,0.0937,0.1065,0.1065,0.1065,0.1065,0.1337,0.1344,0.1351,0,0,0,0,0,0,0,0,0,0,0,0,0,0.0284,0.0291,0.0671,0.0674,0.0677,0.0931,0.0935,0.0938,0.1065,0.1065,0.1065,0.1065,0.1334,0.1343,0.1352,0,0,0,0,0,0,0,0,0,0,0,0,0,0.0489,0.0293,0.067,0.0771,0.0782,0.093,0.0935,0.0939,0.1065,0.1065,0.1065,0.1065,0.1332,0.1342,0.1353,0.1422,0,0,0.1386,0.1391,0,0,0,0,0,0,0,0,0.0477,0.0503,0.0753,0.0764,0.0777,0.0965,0.0898,0.1101,0.1065,0.0958,0.1065,0.1065,0.1214,0.1234,0.1284,0.1435,0.1447,0.1387,0.1394,0.1399,0.1402,0,0,0,0,0,0,0,0.0463,0.0493,0.0774,0.0756,0.0771,0.0803,0.0833,0.0937,0.1083,0.0967,0.0977,0.1006,0.122,0.1273,0.1291,0.1451,0.1387,0.1397,0.1404,0.1408,0.1668,0.1668,0,0,0,0,0,0,0.0432,0.048,0.0766,0.0782,0.0624,0.081,0.0843,0.0905,0.1082,0.1109,0.1006,0.1011,0.1254,0.1278,0.1301,0.1392,0.1399,0.1409,0.1415,0.1667,0.1668,0.1668,0,0,0,0,0,0,0.0423,0.0456,0.0755,0.0634,0.0674,0.0817,0.0886,0.091,0.0963,0.1111,0.1138,0.1032,0.1255,0.1286,0.139,0.1404,0.1414,0.1424,0.1667,0.1668,0.1668,0.1576,0,0,0,0,0,0,0.0412,0.0452,0.048,0.0633,0.068,0.084,0.0887,0.0916,0.0981,0.099,0.1143,0.1169,0.1257,0.1373,0.1401,0.1419,0.1432,0.1667,0.1667,0.1668,0.1578,0.1573,0.1568,0,0,0,0,0,0.0397,0.0446,0.0481,0.0515,0.0718,0.084,0.0867,0.0966,0.0981,0.1011,0.1105,0.1164,0.1396,0.1382,0.1415,0.1436,0.1666,0.1667,0.1668,0.158,0.1574,0.1568,0,0,0,0,0,0,0.0295,0.0468,0.0509,0.0609,0.0708,0.0861,0.0902,0.0957,0.1056,0.1061,0.1181,0.1214,0.1307,0.1382,0.1364,0.1511,0.1537,0.1544,0.1459,0.1454,0.1449,0.1431,0.1441,0,0,0,0,0,0.0283,0.0366,0.0514,0.0587,0.0635,0.0758,0.0816,0.0883,0.0992,0.1035,0.1138,0.1242,0.1339,0.14,0.1497,0.1588,0.1623,0.1618,0.1613,0.1608,0.1614,0.1665,0.1665,0.1671,0.1671,0.1671,0,0,0.0261,0.0366,0.0412,0.0569,0.0654,0.0738,0.0794,0.0882,0.0945,0.105,0.1154,0.1231,0.1356,0.1452,0.15,0.1518,0.1619,0.1609,0.1604,0.1614,0.1666,0.1665,0.1665,0.1671,0.1671,0.1671,0,0,0.0265,0.0352,0.0422,0.0504,0.063,0.0712,0.0727,0.0871,0.0926,0.1031,0.111,0.1187,0.1351,0.1436,0.15,0.1527,0.1585,0.1555,0.1531,0.1579,0.1579,0.1579,0.1589,0.1591,0.156,0.156,0.1559,0,0.0223,0.0352,0.0451,0.0533,0.0599,0.0692,0.0763,0.0839,0.0991,0.1034,0.105,0.1255,0.1346,0.1462,0.1468,0.1517,0.1539,0.154,0.157,0.1572,0.1574,0.1584,0.1587,0.1555,0.1556,0.1556,0.1557,0,0.0293,0.038,0.0421,0.0562,0.0632,0.0708,0.0819,0.0878,0.0936,0.1015,0.1119,0.123,0.1349,0.1381,0.1442,0.1506,0.1512,0.1547,0.1577,0.1567,0.1579,0.1584,0.1549,0.1551,0.1552,0.1553,0,0,0.0246,0.0434,0.0448,0.0511,0.0654,0.0725,0.0802,0.0917,0.0964,0.1064,0.1134,0.1266,0.1299,0.1371,0.1441,0.1482,0.1495,0.1513,0.1518,0.1507,0.1572,0.1545,0.1549,0.1532,0.1533,0.1534,0.1561,0,0.0269,0.0413,0.0502,0.061,0.0691,0.0777,0.0846,0.094,0.1014,0.1094,0.1177,0.1269,0.1305,0.1348,0.1393,0.1484,0.151,0.1483,0.1599,0.1602,0.1567,0.1555,0.1529,0.1549,0.1567,0.1568,0.1568,0,0.0319,0.0412,0.0527,0.0657,0.0694,0.0754,0.0863,0.0938,0.1046,0.1097,0.1173,0.1242,0.1328,0.1346,0.1466,0.1445,0.1496,0.1547,0.155,0.1568,0.1586,0.1573,0.1559,0.1562,0.1577,0.1576,0.1575,0,0.0272,0.0427,0.0515,0.0567,0.072,0.0759,0.0825,0.0933,0.0994,0.1089,0.113,0.1234,0.1292,0.1371,0.1466,0.1471,0.1575,0.1602,0.1621,0.1618,0.1643,0.164,0.1637,0.1671,0.1671,0.1671,0.1671,0,0.0292,0.0359,0.0496,0.055,0.0627,0.0727,0.0801,0.0874,0.0967,0.1038,0.1118,0.1182,0.1302,0.1381,0.1455,0.1542,0.1567,0.1611,0.1631,0.1605,0.16,0.1644,0.1645,0.1672,0.1672,0.1672,0.1672,0,0.0255,0.035,0.0451,0.0585,0.062,0.0671,0.0786,0.0842,0.0917,0.1005,0.1031,0.115,0.1247,0.1347,0.1479,0.1528,0.1613,0.1639,0.1576,0.1587,0.16,0.1598,0.1628,0.1637,0.1661,0.1661,0.1661,0,0.0263,0.0316,0.0453,0.0504,0.0567,0.0649,0.071,0.0809,0.0869,0.0993,0.1033,0.1134,0.1222,0.1371,0.147,0.157,0.16,0.1603,0.1617,0.1588,0.1602,0.1598,0.1604,0.16,0.1599,0.1599,0.1598,0,0.0265,0.0308,0.0392,0.049,0.056,0.0644,0.0731,0.0768,0.0884,0.0947,0.1045,0.1111,0.1242,0.1342,0.1453,0.1522,0.158,0.1592,0.1602,0.1579,0.154,0.1561,0.1566,0.1593,0.1593,0.1594,0.1594,0.1594,0.0253,0.0302,0.0405,0.0495,0.0569,0.0646,0.0704,0.0784,0.0866,0.098,0.1032,0.1129,0.1233,0.1387,0.1453,0.1531,0.1548,0.1562,0.1566,0.1569,0.1562,0.1524,0.1551,0.1552,0.1552,0.1552,0.1553,0,0.026,0.0328,0.0409,0.0526,0.0595,0.0638,0.0735,0.0791,0.0875,0.0965,0.1046,0.1157,0.1252,0.1356,0.1457,0.15,0.1528,0.1523,0.1523,0.1537,0.1541,0.1523,0.1498,0.1498,0.1498,0.1498,0.1498,0.1498,0.0272,0.0357,0.0411,0.0533,0.0602,0.0695,0.0747,0.0818,0.089,0.1008,0.1087,0.1152,0.1248,0.1356,0.1445,0.1473,0.1507,0.1494,0.153,0.1533,0.1537,0.1541,0.1525,0.15,0.15,0.152,0.152,0.152]},{"header":{"parameterUnit":"m.s-1","parameterCategory":1,"la1":30.2991,"la2":30.254,"lo1":-89.0895,"lo2":-89.0444,"dy":0.0017,"dx":0.0017,"nx":28,"ny":28,"refTime":"2024-06-30T09:00:00:Z","depth":0,"parameterNumber":3,"parameterNumberName":"V-component_of_WINDS"},"data":[0,0,0,0,0,0,0,0,0,0,0,0,0,0,0,0,0,0,0,0,0,0,0,0,0,0,0,0,0,0,0,0,0,0,0,0,0,0,0,0,0,0,0,0,0,0,0,0,0,0,0,0,0,0,0,0,0,0,2.561,2.561,0,2.5589,2.5589,2.5589,2.5488,2.5485,2.5483,2.5481,2.5464,2.5466,2.5467,0,0,0,0,0,0,0,0,0,0,0,0,0,2.5562,2.5563,2.561,2.561,2.5609,2.5589,2.5589,2.5589,2.5488,2.5485,2.5482,2.548,2.5463,2.5465,2.5467,0,0,0,0,0,0,0,0,0,0,0,0,0,2.5566,2.5563,2.561,2.5557,2.5552,2.5589,2.5589,2.5589,2.5489,2.5485,2.5481,2.5478,2.5462,2.5465,2.5468,2.5556,0,0,2.5476,2.5477,0,0,0,0,0,0,0,0,2.5566,2.5568,2.5565,2.556,2.5555,2.5537,2.5565,2.5578,2.549,2.5513,2.5481,2.5476,2.5491,2.5491,2.5496,2.5556,2.5555,2.5476,2.5478,2.5479,2.548,0,0,0,0,0,0,0,2.5566,2.5568,2.5602,2.5565,2.5559,2.5533,2.553,2.5567,2.5523,2.551,2.5503,2.5502,2.5488,2.5493,2.5495,2.5555,2.5476,2.5478,2.548,2.5481,2.568,2.5684,0,0,0,0,0,0,2.5573,2.5569,2.5602,2.5601,2.5551,2.5537,2.5533,2.5547,2.5522,2.5515,2.5505,2.5497,2.5491,2.5492,2.5494,2.5593,2.5479,2.5481,2.5483,2.5677,2.5681,2.5685,0,0,0,0,0,0,2.5572,2.5577,2.5603,2.5583,2.5584,2.5542,2.5557,2.5548,2.5553,2.5518,2.5509,2.5519,2.5488,2.549,2.554,2.5591,2.5483,2.5485,2.5672,2.5678,2.5683,2.5794,0,0,0,0,0,0,2.5571,2.5577,2.5611,2.5584,2.5586,2.5651,2.5561,2.555,2.5558,2.5547,2.5528,2.5522,2.5485,2.5536,2.5543,2.5593,2.5487,2.5668,2.5675,2.5681,2.5786,2.5803,2.5818,0,0,0,0,0,2.557,2.5646,2.5614,2.5618,2.5627,2.5654,2.5655,2.561,2.5562,2.5595,2.5571,2.5522,2.5584,2.5543,2.5549,2.56,2.5664,2.5673,2.5681,2.5779,2.58,2.5817,0,0,0,0,0,0,2.5683,2.5641,2.5605,2.5675,2.5668,2.5637,2.5678,2.5634,2.5643,2.5633,2.5577,2.5574,2.5632,2.562,2.5575,2.5682,2.5615,2.5625,2.5688,2.5707,2.5723,2.5725,2.5489,0,0,0,0,0,2.5715,2.574,2.5702,2.5767,2.5765,2.5722,2.5732,2.5697,2.5689,2.5687,2.5667,2.5661,2.5678,2.5692,2.5706,2.5782,2.5776,2.582,2.5836,2.5849,2.5859,2.5895,2.5914,2.5712,2.5712,2.5712,0,0,2.5784,2.5764,2.5784,2.5789,2.578,2.5806,2.5721,2.5754,2.5772,2.5692,2.5737,2.5722,2.5712,2.5774,2.5801,2.5767,2.5912,2.586,2.5871,2.5873,2.5905,2.5925,2.5942,2.5718,2.5717,2.5716,0,0,2.5922,2.591,2.5961,2.5952,2.5937,2.5907,2.5919,2.5893,2.5879,2.5922,2.5861,2.5882,2.5914,2.5908,2.591,2.6038,2.5992,2.6044,2.6127,2.6163,2.6179,2.6192,2.6237,2.6253,2.6053,2.6053,2.6054,0,2.601,2.6047,2.5993,2.6028,2.603,2.5954,2.6004,2.5999,2.5991,2.5995,2.5955,2.599,2.5979,2.6037,2.6067,2.6071,2.6082,2.6047,2.618,2.6194,2.6206,2.6247,2.6264,2.606,2.6059,2.6058,2.6058,0,2.6154,2.618,2.6222,2.6213,2.622,2.6263,2.6214,2.6228,2.619,2.6163,2.6206,2.6188,2.6196,2.6206,2.6172,2.6258,2.6237,2.619,2.6123,2.6232,2.627,2.6286,2.6069,2.6067,2.6065,2.6063,0,0,2.637,2.6324,2.6341,2.6333,2.6309,2.6328,2.6364,2.6369,2.6381,2.6376,2.6405,2.643,2.6384,2.6386,2.6349,2.638,2.6479,2.6328,2.6327,2.6356,2.6571,2.6607,2.6627,2.6447,2.645,2.6452,2.6571,0,2.6501,2.6561,2.651,2.658,2.6601,2.6526,2.6557,2.6545,2.652,2.6534,2.6505,2.6523,2.6463,2.6462,2.6489,2.6462,2.6522,2.6452,2.6474,2.6475,2.648,2.6647,2.6687,2.68,2.6586,2.6588,2.659,0,2.6664,2.6663,2.6734,2.6699,2.6706,2.6736,2.6733,2.6747,2.673,2.6709,2.6707,2.6659,2.6691,2.6622,2.6665,2.6619,2.6624,2.6611,2.6614,2.6616,2.6541,2.6654,2.6836,2.6853,2.6613,2.6612,2.661,0,2.6813,2.6828,2.6872,2.6868,2.6829,2.6851,2.6836,2.6814,2.6819,2.6816,2.6817,2.6819,2.6821,2.6823,2.6776,2.673,2.6824,2.6752,2.6807,2.6808,2.6833,2.6832,2.7019,2.6834,2.6834,2.6834,2.6833,0,2.6966,2.7013,2.6937,2.6964,2.7012,2.6951,2.7001,2.6978,2.6958,2.6979,2.6913,2.6934,2.687,2.6884,2.6847,2.6887,2.6888,2.6871,2.6861,2.6878,2.688,2.6882,2.6873,2.6838,2.6837,2.6836,2.6836,0,2.7142,2.7094,2.7136,2.7092,2.7082,2.712,2.7083,2.7105,2.7072,2.7098,2.7101,2.705,2.7062,2.7014,2.7019,2.6994,2.7052,2.7029,2.7058,2.7051,2.7108,2.7104,2.7304,2.7327,2.7128,2.713,2.7131,0,2.7244,2.7277,2.7236,2.7243,2.723,2.7244,2.7246,2.7186,2.7191,2.717,2.7194,2.7199,2.7201,2.7222,2.7186,2.7188,2.7164,2.7234,2.7165,2.7179,2.7165,2.7164,2.7166,2.725,2.7252,2.7254,2.7256,0,2.7429,2.7402,2.7407,2.7402,2.7405,2.7399,2.7389,2.7399,2.7333,2.7341,2.7351,2.7351,2.7352,2.7358,2.7351,2.7335,2.7285,2.7277,2.729,2.7308,2.7323,2.7315,2.7098,2.7274,2.7272,2.7271,2.727,2.7269,2.7571,2.7595,2.7568,2.7575,2.7559,2.7549,2.7566,2.7533,2.7539,2.7534,2.7497,2.7513,2.749,2.7474,2.7462,2.7473,2.744,2.7459,2.7464,2.747,2.748,2.732,2.7472,2.7471,2.7471,2.747,2.747,0,2.7753,2.773,2.7735,2.772,2.7724,2.7672,2.7656,2.7663,2.7677,2.7658,2.7659,2.7668,2.7671,2.7632,2.763,2.7646,2.7622,2.7648,2.7647,2.7643,2.751,2.7499,2.7666,2.7666,2.7666,2.7666,2.7666,2.7666,2.7848,2.7884,2.7853,2.788,2.7856,2.7869,2.7864,2.7854,2.7838,2.785,2.7851,2.7824,2.7796,2.7791,2.7791,2.7779,2.7782,2.7815,2.7796,2.7672,2.7653,2.7635,2.7624,2.7816,2.7816,2.7928,2.7929,2.793]}]]